Nattehimlen netop nu: Perseiderne topper den 12-13.august med 120 stjerneskud i timen.
  • Ny Tablet venlig Vejr3


  • Vejr3>N more information Vejr3>N


    3 timers nedbørs radar more information rain snow radar


    besøg nogle andre vejrsider:

    Template dokumentation
    og downloads

    And another site


    Select another period ( hide this area )

    enheder periode Custom range Directly to
    metrisk engelsk både
    dagens ugenligt månedlig årligt
    use both date-selectors for a custom range
    forgående dag
    With this date

    WeatherUnderground graphs for this period ( click here )


    dagens sammenfatning af søndag 25 august 2019
    tid Temp. ( °C ) Dew pt. ( °C ) vind ( km/h ) fra vindstød ( km/h ) lufttryk ( hPa ) Humid.( % ) Rainrate ( cm ) solenergi ( W/m2 )
    høj16,6 16,4 4,8 øst ( 58/90 ) 9,7 1023,4 100 - 12.4
    gennemsnit15,1 14,3 1,0 stille #57/88 2,4 1022,7 95 - 7 #16/88
    lav13,7 12,9 -   0,0 1022,1 90 -  
    dagens Tabular details for søndag 25 august 2019
    tid Temp. ( °C ) Dew pt. ( °C ) vind ( km/h ) fra vindstød ( km/h ) lufttryk ( hPa ) Humid.( % ) Rainrate ( cm ) solenergi ( W/m2 )
    00:00 15,3 13,7   stille   1023,2 90 - -
    00:05 15,3 13,7   stille   1023,3 90 - -
    00:10 15,2 13,6   stille   1023,2 90 - -
    00:15 15,2 13,5   stille   1023,2 90 - -
    00:20 15,1 13,6   stille   1023,3 91 - -
    00:25 15,0 13,6   stille   1023,4 91 - -
    00:30 14,9 13,4   stille   1023,4 91 - -
    00:35 14,8 13,4   stille   1023,4 91 - -
    00:40 14,8 13,6   stille   1023,4 92 - -
    00:45 14,8 13,5   stille   1023,4 92 - -
    00:50 14,7 13,4   stille   1023,4 92 - -
    00:55 14,7 13,4 1,6 øst 1,6 1023,3 92 - -
    01:00 14,6 13,3   stille   1023,3 92 - -
    01:05 14,5 13,2   stille   1023,3 92 - -
    01:10 14,4 13,2   stille   1023,3 92 - -
    01:15 14,4 13,3   stille   1023,2 93 - -
    01:20 14,4 13,3   stille 1,6 1023,2 93 - -
    01:25 14,4 13,3   stille 3,2 1023,1 93 - -
    01:30 14,3 13,2   stille   1023,0 93 - -
    01:35 14,2 13,1   stille   1023,0 93 - -
    01:40 14,2 13,1   stille   1023,0 93 - -
    01:45 14,1 13,0   stille   1023,0 93 - -
    01:50 14,1 12,9   stille   1023,0 93 - -
    01:55 14,1 13,1   stille   1023,0 94 - -
    02:00 14,1 13,1   stille   1023,0 94 - -
    02:05 14,0 13,1   stille   1023,0 94 - -
    02:10 13,9 13,0   stille   1023,0 94 - -
    02:15 13,9 13,0   stille   1023,0 94 - -
    02:20 13,9 12,9   stille   1022,9 94 - -
    02:25 13,9 12,9   stille   1022,9 94 - -
    02:30 13,8 12,9   stille   1022,9 94 - -
    02:35 13,9 13,1   stille 3,2 1022,9 95 - -
    02:40 13,9 13,1   stille 1,6 1022,8 95 - -
    02:45 13,9 13,1   stille   1022,8 95 - -
    02:50 13,8 12,9   stille 1,6 1022,8 94 - -
    02:55 13,8 13,0   stille   1022,8 95 - -
    03:00 13,7 12,9   stille   1022,8 95 - -
    03:05 13,7 12,9   stille 1,6 1022,8 95 - -
    03:10 13,8 13,0   stille   1022,8 95 - -
    03:15 13,9 13,2 3,2 øsø 6,4 1022,8 96 - -
    03:20 14,4 13,9 4,8 øsø 8,0 1022,7 97 - -
    03:25 15,2 15,2 4,8 øsø 6,4 1022,7 100 - -
    03:30 15,6 15,6 4,8 øsø 9,7 1022,7 100 - -
    03:35 15,8 15,3 4,8 øsø 6,4 1022,7 97 - -
    03:40 15,9 15,4 3,2 øsø 4,8 1022,6 97 - -
    03:45 15,9 15,4 3,2 øsø 3,2 1022,6 97 - -
    03:50 15,9 15,3   stille   1022,6 96 - -
    03:55 15,8 15,1   stille   1022,6 96 - -
    04:00 15,6 14,9   stille   1022,6 96 - -
    04:05 15,4 14,6   stille   1022,6 95 - -
    04:10 15,2 14,4   stille   1022,6 95 - -
    04:15 15,1 14,4   stille   1022,6 96 - -
    04:20 15,1 14,4   stille   1022,6 96 - -
    04:25 14,9 14,3   stille   1022,6 96 - -
    04:30 14,8 14,1   stille   1022,5 95 - -
    04:35 14,7 14,1   stille   1022,6 96 - -
    04:40 14,7 14,1   stille   1022,5 96 - -
    04:45 14,6 14,0   stille   1022,5 96 - -
    04:50 14,6 14,0   stille   1022,5 96 - -
    04:55 14,6 14,0 1,6 øst 3,2 1022,4 96 - -
    05:00 14,7 14,2 1,6 øst 3,2 1022,5 97 - -
    05:05 14,7 14,1 1,6 øst 4,8 1022,4 96 - -
    05:10 14,7 14,2 1,6 øst 3,2 1022,4 97 - -
    05:15 14,9 14,6 1,6 øst 8,0 1022,3 98 - -
    05:20 15,3 15,3 4,8 øst 9,7 1022,3 100 - -
    05:25 15,7 15,7 4,8 øst 9,7 1022,2 100 - -
    05:30 16,0 16,0 1,6 øst 4,8 1022,2 100 - -
    05:35 16,2 16,2 1,6 øst 4,8 1022,1 100 - -
    05:40 16,4 16,4 1,6 ønø 3,2 1022,1 100 - -
    05:45 16,4 16,4   stille 4,8 1022,1 100 - -
    05:50 16,5 16,0 1,6 ønø 4,8 1022,1 97 - -
    05:55 16,5 16,0 3,2 øst 4,8 1022,1 97 - -
    06:00 16,6 16,1   stille   1022,1 97 - 1.2
    06:05 16,6 16,1   stille 3,2 1022,1 97 - 1.8
    06:10 16,6 16,1   stille 1,6 1022,1 97 - 2.4
    06:15 16,6 16,1   stille 1,6 1022,1 97 - 3.1
    06:20 16,5 16,0 1,6 øst 6,4 1022,1 97 - 3.8
    06:25 16,5 16,0   stille 3,2 1022,1 97 - 4.5
    06:30 16,5 16,0 1,6 øst 4,8 1022,2 97 - 5.2
    06:35 16,5 16,0 1,6 øst 3,2 1022,1 97 - 6
    06:40 16,5 16,0 3,2 øst 4,8 1022,1 97 - 6.8
    06:45 16,4 16,0 3,2 øst 4,8 1022,1 97 - 7.5
    06:50 16,5 16,0 3,2 øst 8,0 1022,1 97 - 8.3
    06:55 16,5 16,0 3,2 øst 8,0 1022,1 97 - 9.1
    07:00 16,5 16,0 4,8 øst 8,0 1022,1 97 - 9.9
    07:05 16,5 16,0 3,2 øst 9,7 1022,1 97 - 10.7
    07:10 16,5 16,0 4,8 øst 9,7 1022,1 97 - 11.5
    07:15 16,5 16,1 1,6 øst 4,8 1022,1 97 - 12.4
    dagens sammenfatning af søndag 25 august 2019
    tid Temp. ( °C ) Dew pt. ( °C ) vind ( km/h ) fra vindstød ( km/h ) lufttryk ( hPa ) Humid.( % ) Rainrate ( cm ) solenergi ( W/m2 )
    høj16,6 16,4 4,8 øst ( 58/90 ) 9,7 1023,4 100 - 12.4
    gennemsnit15,1 14,3 1,0 stille #57/88 2,4 1022,7 95 - 7 #16/88
    lav13,7 12,9 -   0,0 1022,1 90 -  
    dagens Tabular details for søndag 25 august 2019
    tid Temp. ( °C ) Dew pt. ( °C ) vind ( km/h ) fra vindstød ( km/h ) lufttryk ( hPa ) Humid.( % ) Rainrate ( cm ) solenergi ( W/m2 )
    00:00 15,3 13,7   stille   1023,2 90 - -
    00:05 15,3 13,7   stille   1023,3 90 - -
    00:10 15,2 13,6   stille   1023,2 90 - -
    00:15 15,2 13,5   stille   1023,2 90 - -
    00:20 15,1 13,6   stille   1023,3 91 - -
    00:25 15,0 13,6   stille   1023,4 91 - -
    00:30 14,9 13,4   stille   1023,4 91 - -
    00:35 14,8 13,4   stille   1023,4 91 - -
    00:40 14,8 13,6   stille   1023,4 92 - -
    00:45 14,8 13,5   stille   1023,4 92 - -
    00:50 14,7 13,4   stille   1023,4 92 - -
    00:55 14,7 13,4 1,6 øst 1,6 1023,3 92 - -
    01:00 14,6 13,3   stille   1023,3 92 - -
    01:05 14,5 13,2   stille   1023,3 92 - -
    01:10 14,4 13,2   stille   1023,3 92 - -
    01:15 14,4 13,3   stille   1023,2 93 - -
    01:20 14,4 13,3   stille 1,6 1023,2 93 - -
    01:25 14,4 13,3   stille 3,2 1023,1 93 - -
    01:30 14,3 13,2   stille   1023,0 93 - -
    01:35 14,2 13,1   stille   1023,0 93 - -
    01:40 14,2 13,1   stille   1023,0 93 - -
    01:45 14,1 13,0   stille   1023,0 93 - -
    01:50 14,1 12,9   stille   1023,0 93 - -
    01:55 14,1 13,1   stille   1023,0 94 - -
    02:00 14,1 13,1   stille   1023,0 94 - -
    02:05 14,0 13,1   stille   1023,0 94 - -
    02:10 13,9 13,0   stille   1023,0 94 - -
    02:15 13,9 13,0   stille   1023,0 94 - -
    02:20 13,9 12,9   stille   1022,9 94 - -
    02:25 13,9 12,9   stille   1022,9 94 - -
    02:30 13,8 12,9   stille   1022,9 94 - -
    02:35 13,9 13,1   stille 3,2 1022,9 95 - -
    02:40 13,9 13,1   stille 1,6 1022,8 95 - -
    02:45 13,9 13,1   stille   1022,8 95 - -
    02:50 13,8 12,9   stille 1,6 1022,8 94 - -
    02:55 13,8 13,0   stille   1022,8 95 - -
    03:00 13,7 12,9   stille   1022,8 95 - -
    03:05 13,7 12,9   stille 1,6 1022,8 95 - -
    03:10 13,8 13,0   stille   1022,8 95 - -
    03:15 13,9 13,2 3,2 øsø 6,4 1022,8 96 - -
    03:20 14,4 13,9 4,8 øsø 8,0 1022,7 97 - -
    03:25 15,2 15,2 4,8 øsø 6,4 1022,7 100 - -
    03:30 15,6 15,6 4,8 øsø 9,7 1022,7 100 - -
    03:35 15,8 15,3 4,8 øsø 6,4 1022,7 97 - -
    03:40 15,9 15,4 3,2 øsø 4,8 1022,6 97 - -
    03:45 15,9 15,4 3,2 øsø 3,2 1022,6 97 - -
    03:50 15,9 15,3   stille   1022,6 96 - -
    03:55 15,8 15,1   stille   1022,6 96 - -
    04:00 15,6 14,9   stille   1022,6 96 - -
    04:05 15,4 14,6   stille   1022,6 95 - -
    04:10 15,2 14,4   stille   1022,6 95 - -
    04:15 15,1 14,4   stille   1022,6 96 - -
    04:20 15,1 14,4   stille   1022,6 96 - -
    04:25 14,9 14,3   stille   1022,6 96 - -
    04:30 14,8 14,1   stille   1022,5 95 - -
    04:35 14,7 14,1   stille   1022,6 96 - -
    04:40 14,7 14,1   stille   1022,5 96 - -
    04:45 14,6 14,0   stille   1022,5 96 - -
    04:50 14,6 14,0   stille   1022,5 96 - -
    04:55 14,6 14,0 1,6 øst 3,2 1022,4 96 - -
    05:00 14,7 14,2 1,6 øst 3,2 1022,5 97 - -
    05:05 14,7 14,1 1,6 øst 4,8 1022,4 96 - -
    05:10 14,7 14,2 1,6 øst 3,2 1022,4 97 - -
    05:15 14,9 14,6 1,6 øst 8,0 1022,3 98 - -
    05:20 15,3 15,3 4,8 øst 9,7 1022,3 100 - -
    05:25 15,7 15,7 4,8 øst 9,7 1022,2 100 - -
    05:30 16,0 16,0 1,6 øst 4,8 1022,2 100 - -
    05:35 16,2 16,2 1,6 øst 4,8 1022,1 100 - -
    05:40 16,4 16,4 1,6 ønø 3,2 1022,1 100 - -
    05:45 16,4 16,4   stille 4,8 1022,1 100 - -
    05:50 16,5 16,0 1,6 ønø 4,8 1022,1 97 - -
    05:55 16,5 16,0 3,2 øst 4,8 1022,1 97 - -
    06:00 16,6 16,1   stille   1022,1 97 - 1.2
    06:05 16,6 16,1   stille 3,2 1022,1 97 - 1.8
    06:10 16,6 16,1   stille 1,6 1022,1 97 - 2.4
    06:15 16,6 16,1   stille 1,6 1022,1 97 - 3.1
    06:20 16,5 16,0 1,6 øst 6,4 1022,1 97 - 3.8
    06:25 16,5 16,0   stille 3,2 1022,1 97 - 4.5
    06:30 16,5 16,0 1,6 øst 4,8 1022,2 97 - 5.2
    06:35 16,5 16,0 1,6 øst 3,2 1022,1 97 - 6
    06:40 16,5 16,0 3,2 øst 4,8 1022,1 97 - 6.8
    06:45 16,4 16,0 3,2 øst 4,8 1022,1 97 - 7.5
    06:50 16,5 16,0 3,2 øst 8,0 1022,1 97 - 8.3
    06:55 16,5 16,0 3,2 øst 8,0 1022,1 97 - 9.1
    07:00 16,5 16,0 4,8 øst 8,0 1022,1 97 - 9.9
    07:05 16,5 16,0 3,2 øst 9,7 1022,1 97 - 10.7
    07:10 16,5 16,0 4,8 øst 9,7 1022,1 97 - 11.5
    07:15 16,5 16,1 1,6 øst 4,8 1022,1 97 - 12.4

    Download your copy of this data-set  here

    Our weather-data as stored at Weather Underground. script udviklet af Jim McMurry. tilpasset til dette template Leuven-Template.eu

    du finder også vores vejrinformationer på:

    European Weather Network

    Weather Underground

    AWEKAS

    WeatherlinkIP

    Citizen Weather Observer Program (CWOP)

    udstyr som vi anvender:

    vejrstation
    Davis VP2+

    vejrprogram
    Weather Display

    vejrserver
    Dell E6400

    hjemmeside host
    Webhosting.dk

    Davis VP2+

    Weather Display

    Dell E6400

    Webhosting.dk